START_TIME,STEP,MOV.,P11,t_acc.,P23,t_acc.,P27,t_acc.,A4,t_acc.
1979-07-24 06:00:22.600 ,0,1,0.,4.8,0.,4.8,0.,4.8,0.,4.8
1979-07-24 06:00:27.400 ,0,1,0.,4.8,0.,4.8,0.,4.8,0.,4.8
1979-07-24 06:00:32.200 ,0,1,2.,4.8,0.,4.8,0.,4.8,1.,4.8
1979-07-24 06:00:37.000 ,0,1,2.,4.8,0.,4.8,0.,4.8,0.,4.8
1979-07-24 06:00:41.800 ,0,1,0.,4.8,0.,4.8,0.,4.8,0.,4.8
1979-07-24 06:00:46.600 ,4,1,2.,4.8,0.,4.8,0.,4.8,0.,4.8
1979-07-24 06:00:51.400 ,4,1,2.,4.8,0.,4.8,0.,4.8,0.,4.8
1979-07-24 06:00:56.200 ,4,1,1.,4.8,0.,4.8,0.,4.8,0.,4.8
1979-07-24 06:01:01.000 ,4,1,5.,4.8,0.,4.8,0.,4.8,0.,4.8
1979-07-24 06:01:05.800 ,4,1,2.,4.8,0.,4.8,0.,4.8,0.,4.8
1979-07-24 06:01:10.600 ,7,1,0.,4.8,0.,4.8,1.,4.8,0.,4.8
1979-07-24 06:01:15.400 ,7,1,1.,4.8,0.,4.8,0.,4.8,0.,4.8
1979-07-24 06:01:20.200 ,7,1,2.,4.8,0.,4.8,1.,4.8,0.,4.8
1979-07-24 06:01:25.000 ,7,1,0.,4.8,0.,4.8,0.,4.8,0.,4.8
1979-07-24 06:01:29.800 ,7,1,0.,4.8,0.,4.8,0.,4.8,0.,4.8
1979-07-24 06:01:34.600 ,3,1,1.,4.8,0.,4.8,0.,4.8,0.,4.8
1979-07-24 06:01:39.400 ,3,1,2.,4.8,0.,4.8,1.,4.8,0.,4.8
1979-07-24 06:01:44.200 ,3,1,1.,4.8,0.,4.8,0.,4.8,0.,4.8
1979-07-24 06:01:49.000 ,3,1,2.,4.8,0.,4.8,0.,4.8,0.,4.8
1979-07-24 06:01:53.800 ,3,1,0.,4.8,0.,4.8,0.,4.8,0.,4.8
1979-07-24 06:01:58.600 ,0,1,1.,4.8,0.,4.8,0.,4.8,0.,4.8
1979-07-24 06:02:03.400 ,0,1,4.,4.8,0.,4.8,0.,4.8,0.,4.8
1979-07-24 06:02:08.200 ,0,1,4.,4.8,0.,4.8,0.,4.8,0.,4.8
1979-07-24 06:02:13.000 ,0,1,3.,4.8,0.,4.8,0.,4.8,0.,4.8
1979-07-24 06:02:17.800 ,0,1,2.,4.8,0.,4.8,0.,4.8,0.,4.8
1979-07-24 06:02:22.600 ,4,1,0.,4.8,0.,4.8,0.,4.8,0.,4.8
1979-07-24 06:02:27.400 ,4,1,3.,4.8,0.,4.8,0.,4.8,1.,4.8
1979-07-24 06:02:32.200 ,4,1,3.,4.8,0.,4.8,0.,4.8,0.,4.8
1979-07-24 06:02:37.000 ,4,1,1.,4.8,0.,4.8,1.,4.8,0.,4.8
1979-07-24 06:02:41.800 ,4,1,2.,4.8,0.,4.8,0.,4.8,0.,4.8
1979-07-24 06:02:46.600 ,7,1,3.,4.8,0.,4.8,0.,4.8,0.,4.8
1979-07-24 06:02:51.400 ,7,1,4.,4.8,0.,4.8,0.,4.8,0.,4.8
1979-07-24 06:02:56.200 ,7,1,1.,4.8,0.,4.8,0.,4.8,0.,4.8
1979-07-24 06:03:01.000 ,7,1,1.,4.8,0.,4.8,1.,4.8,0.,4.8
1979-07-24 06:03:05.800 ,7,1,3.,4.8,0.,4.8,0.,4.8,0.,4.8
1979-07-24 06:03:10.600 ,3,1,1.,4.8,0.,4.8,0.,4.8,0.,4.8
1979-07-24 06:03:15.400 ,3,1,2.,4.8,0.,4.8,0.,4.8,0.,4.8
1979-07-24 06:03:20.200 ,3,1,2.,4.8,0.,4.8,0.,4.8,0.,4.8
1979-07-24 06:03:25.000 ,3,1,3.,4.8,0.,4.8,0.,4.8,0.,4.8
1979-07-24 06:03:29.800 ,3,1,2.,4.8,0.,4.8,0.,4.8,0.,4.8
1979-07-24 06:03:34.600 ,0,1,0.,4.8,0.,4.8,0.,4.8,0.,4.8
1979-07-24 06:03:39.400 ,0,1,2.,4.8,0.,4.8,1.,4.8,0.,4.8
1979-07-24 06:03:44.200 ,0,1,4.,4.8,0.,4.8,0.,4.8,0.,4.8
1979-07-24 06:03:49.000 ,0,1,2.,4.8,0.,4.8,0.,4.8,0.,4.8
1979-07-24 06:03:53.800 ,0,1,0.,4.8,0.,4.8,1.,4.8,0.,4.8
1979-07-24 06:03:58.600 ,4,1,2.,4.8,0.,4.8,0.,4.8,0.,4.8
1979-07-24 06:04:03.400 ,4,1,1.,4.8,0.,4.8,0.,4.8,0.,4.8
1979-07-24 06:04:08.200 ,4,1,2.,4.8,0.,4.8,0.,4.8,0.,4.8
1979-07-24 06:04:13.000 ,4,1,1.,4.8,0.,4.8,0.,4.8,0.,4.8
1979-07-24 06:04:17.800 ,4,1,1.,4.8,0.,4.8,0.,4.8,0.,4.8
1979-07-24 06:04:22.600 ,7,1,2.,4.8,0.,4.8,0.,4.8,0.,4.8
1979-07-24 06:04:27.400 ,7,1,1.,4.8,0.,4.8,0.,4.8,0.,4.8
1979-07-24 06:04:32.200 ,7,1,1.,4.8,0.,4.8,0.,4.8,0.,4.8
1979-07-24 06:04:37.000 ,7,1,2.,4.8,0.,4.8,1.,4.8,0.,4.8
1979-07-24 06:04:41.800 ,7,1,1.,4.8,0.,4.8,1.,4.8,0.,4.8
1979-07-24 06:04:46.600 ,3,1,1.,4.8,0.,4.8,0.,4.8,0.,4.8
1979-07-24 06:04:51.400 ,3,1,3.,4.8,0.,4.8,0.,4.8,0.,4.8
1979-07-24 06:04:56.200 ,3,1,3.,4.8,0.,4.8,0.,4.8,0.,4.8
1979-07-24 06:05:01.000 ,3,1,1.,4.8,0.,4.8,0.,4.8,1.,4.8
1979-07-24 06:05:05.800 ,3,1,2.,4.8,0.,4.8,0.,4.8,0.,4.8
1979-07-24 06:05:10.600 ,0,1,2.,4.8,0.,4.8,0.,4.8,0.,4.8
1979-07-24 06:05:15.400 ,0,1,2.,4.8,0.,4.8,0.,4.8,0.,4.8
1979-07-24 06:05:20.200 ,0,1,5.,4.8,0.,4.8,0.,4.8,0.,4.8
1979-07-24 06:05:25.000 ,0,1,1.,4.8,0.,4.8,0.,4.8,0.,4.8
1979-07-24 06:05:29.800 ,0,1,2.,4.8,0.,4.8,0.,4.8,1.,4.8
1979-07-24 06:05:34.600 ,0,0,1.,4.8,0.,4.8,0.,4.8,0.,4.8
1979-07-24 06:05:39.400 ,0,0,4.,4.8,0.,4.8,0.,4.8,0.,4.8
1979-07-24 06:05:44.200 ,0,0,3.,4.8,0.,4.8,0.,4.8,0.,4.8
1979-07-24 06:05:49.000 ,0,0,1.,4.8,0.,4.8,0.,4.8,0.,4.8
1979-07-24 06:05:53.800 ,0,0,1.,4.8,0.,4.8,0.,4.8,0.,4.8
1979-07-24 06:05:58.600 ,0,0,3.,4.8,0.,4.8,0.,4.8,0.,4.8
1979-07-24 06:06:03.400 ,0,0,1.,4.8,0.,4.8,0.,4.8,0.,4.8
1979-07-24 06:06:08.200 ,0,0,3.,4.8,0.,4.8,0.,4.8,1.,4.8
1979-07-24 06:06:13.000 ,0,0,4.,4.8,0.,4.8,0.,4.8,0.,4.8
1979-07-24 06:06:17.800 ,0,0,1.,4.8,0.,4.8,1.,4.8,0.,4.8
1979-07-24 06:06:22.600 ,5,0,2.,4.8,0.,4.8,0.,4.8,0.,4.8
1979-07-24 06:06:27.400 ,5,0,2.,4.8,0.,4.8,0.,4.8,0.,4.8
1979-07-24 06:06:32.200 ,5,0,2.,4.8,0.,4.8,0.,4.8,0.,4.8
1979-07-24 06:06:37.000 ,5,0,3.,4.8,0.,4.8,0.,4.8,0.,4.8
1979-07-24 06:06:41.800 ,5,0,4.,4.8,0.,4.8,0.,4.8,1.,4.8
1979-07-24 06:06:46.600 ,5,0,1.,4.8,0.,4.8,0.,4.8,0.,4.8
1979-07-24 06:06:51.400 ,5,0,3.,4.8,0.,4.8,0.,4.8,0.,4.8
1979-07-24 06:06:56.200 ,5,0,1.,4.8,0.,4.8,0.,4.8,0.,4.8
1979-07-24 06:07:01.000 ,5,0,4.,4.8,0.,4.8,0.,4.8,0.,4.8
1979-07-24 06:07:05.800 ,5,0,2.,4.8,0.,4.8,1.,4.8,0.,4.8
1979-07-24 06:07:10.600 ,4,0,5.,4.8,0.,4.8,0.,4.8,1.,4.8
1979-07-24 06:07:15.400 ,4,0,2.,4.8,1.,4.8,0.,4.8,0.,4.8
1979-07-24 06:07:20.200 ,4,0,3.,4.8,0.,4.8,0.,4.8,0.,4.8
1979-07-24 06:07:25.000 ,4,0,4.,4.8,0.,4.8,1.,4.8,0.,4.8
1979-07-24 06:07:29.800 ,4,0,2.,4.8,0.,4.8,0.,4.8,0.,4.8
1979-07-24 06:07:34.600 ,4,0,0.,4.8,0.,4.8,0.,4.8,0.,4.8
1979-07-24 06:07:39.400 ,4,0,0.,4.8,0.,4.8,0.,4.8,0.,4.8
1979-07-24 06:07:44.200 ,4,0,3.,4.8,0.,4.8,0.,4.8,0.,4.8
1979-07-24 06:07:49.000 ,4,0,2.,4.8,0.,4.8,0.,4.8,0.,4.8
1979-07-24 06:07:53.800 ,4,0,5.,4.8,0.,4.8,0.,4.8,0.,4.8
1979-07-24 06:07:58.600 ,3,0,1.,4.8,0.,4.8,0.,4.8,0.,4.8
1979-07-24 06:08:03.400 ,3,0,1.,4.8,0.,4.8,1.,4.8,0.,4.8
1979-07-24 06:08:08.200 ,3,0,3.,4.8,0.,4.8,0.,4.8,0.,4.8
1979-07-24 06:08:13.000 ,3,0,2.,4.8,0.,4.8,0.,4.8,0.,4.8
1979-07-24 06:08:17.800 ,3,0,1.,4.8,0.,4.8,0.,4.8,0.,4.8
1979-07-24 06:08:22.600 ,3,0,2.,4.8,0.,4.8,0.,4.8,0.,4.8
1979-07-24 06:08:27.400 ,3,0,5.,4.8,0.,4.8,0.,4.8,0.,4.8
1979-07-24 06:08:32.200 ,3,0,2.,4.8,0.,4.8,0.,4.8,0.,4.8
1979-07-24 06:08:37.000 ,3,0,2.,4.8,0.,4.8,0.,4.8,0.,4.8
1979-07-24 06:08:41.800 ,3,0,3.,4.8,0.,4.8,1.,4.8,0.,4.8
1979-07-24 06:08:46.600 ,2,0,3.,4.8,0.,4.8,0.,4.8,0.,4.8
1979-07-24 06:08:51.400 ,2,0,1.,4.8,0.,4.8,0.,4.8,0.,4.8
1979-07-24 06:08:56.200 ,2,0,1.,4.8,0.,4.8,0.,4.8,0.,4.8
1979-07-24 06:09:01.000 ,2,0,2.,4.8,0.,4.8,0.,4.8,0.,4.8
1979-07-24 06:09:05.800 ,2,0,3.,4.8,0.,4.8,1.,4.8,0.,4.8
1979-07-24 06:09:10.600 ,2,0,5.,4.8,0.,4.8,0.,4.8,0.,4.8
1979-07-24 06:09:15.400 ,2,0,2.,4.8,0.,4.8,0.,4.8,0.,4.8
1979-07-24 06:09:20.200 ,2,0,2.,4.8,0.,4.8,0.,4.8,0.,4.8
1979-07-24 06:09:25.000 ,2,0,5.,4.8,0.,4.8,0.,4.8,0.,4.8
1979-07-24 06:09:29.800 ,2,0,3.,4.8,0.,4.8,0.,4.8,0.,4.8
1979-07-24 06:09:34.600 ,1,0,5.,4.8,0.,4.8,1.,4.8,0.,4.8
1979-07-24 06:09:39.400 ,1,0,0.,4.8,0.,4.8,0.,4.8,0.,4.8
1979-07-24 06:09:44.200 ,1,0,1.,4.8,0.,4.8,1.,4.8,0.,4.8
1979-07-24 06:09:49.000 ,1,0,1.,4.8,1.,4.8,0.,4.8,0.,4.8
1979-07-24 06:09:53.800 ,1,0,4.,4.8,0.,4.8,0.,4.8,0.,4.8
1979-07-24 06:09:58.600 ,1,0,3.,4.8,0.,4.8,0.,4.8,0.,4.8
1979-07-24 06:10:03.400 ,1,0,1.,4.8,0.,4.8,0.,4.8,0.,4.8
1979-07-24 06:10:08.200 ,1,0,2.,4.8,0.,4.8,0.,4.8,0.,4.8
1979-07-24 06:10:13.000 ,1,0,1.,4.8,0.,4.8,0.,4.8,0.,4.8
1979-07-24 06:10:17.800 ,1,0,1.,4.8,0.,4.8,0.,4.8,0.,4.8
1979-07-24 06:10:22.600 ,0,0,1.,4.8,0.,4.8,0.,4.8,0.,4.8
1979-07-24 06:10:27.400 ,0,0,1.,4.8,0.,4.8,0.,4.8,0.,4.8
1979-07-24 06:10:32.200 ,0,0,3.,4.8,0.,4.8,0.,4.8,0.,4.8
1979-07-24 06:10:37.000 ,0,0,1.,4.8,0.,4.8,0.,4.8,0.,4.8
1979-07-24 06:10:41.800 ,0,0,3.,4.8,0.,4.8,0.,4.8,0.,4.8
1979-07-24 06:10:46.600 ,0,0,2.,4.8,0.,4.8,0.,4.8,0.,4.8
1979-07-24 06:10:51.400 ,0,0,4.,4.8,0.,4.8,0.,4.8,0.,4.8
1979-07-24 06:10:56.200 ,0,0,1.,4.8,0.,4.8,0.,4.8,0.,4.8
1979-07-24 06:11:01.000 ,0,0,0.,4.8,0.,4.8,0.,4.8,0.,4.8
1979-07-24 06:11:05.800 ,0,0,0.,4.8,0.,4.8,0.,4.8,0.,4.8
1979-07-24 06:11:10.600 ,0,0,3.,4.8,0.,4.8,0.,4.8,0.,4.8
1979-07-24 06:11:15.400 ,0,0,2.,4.8,0.,4.8,0.,4.8,0.,4.8
1979-07-24 06:11:20.200 ,0,0,1.,4.8,0.,4.8,0.,4.8,0.,4.8
1979-07-24 06:11:25.000 ,0,0,0.,4.8,0.,4.8,0.,4.8,0.,4.8
1979-07-24 06:11:29.800 ,0,0,1.,4.8,0.,4.8,1.,4.8,0.,4.8
1979-07-24 06:11:34.600 ,0,0,2.,4.8,0.,4.8,0.,4.8,0.,4.8
1979-07-24 06:11:39.400 ,0,0,4.,4.8,0.,4.8,0.,4.8,0.,4.8
1979-07-24 06:11:44.200 ,0,0,2.,4.8,0.,4.8,0.,4.8,0.,4.8
1979-07-24 06:11:49.000 ,0,0,2.,4.8,0.,4.8,0.,4.8,0.,4.8
1979-07-24 06:11:53.800 ,0,0,3.,4.8,0.,4.8,1.,4.8,1.,4.8
1979-07-24 06:11:58.600 ,1,0,2.,4.8,0.,4.8,1.,4.8,0.,4.8
1979-07-24 06:12:03.400 ,1,0,2.,4.8,0.,4.8,0.,4.8,0.,4.8
1979-07-24 06:12:08.200 ,1,0,3.,4.8,0.,4.8,1.,4.8,0.,4.8
1979-07-24 06:12:13.000 ,1,0,3.,4.8,0.,4.8,0.,4.8,0.,4.8
1979-07-24 06:12:17.800 ,1,0,5.,4.8,0.,4.8,2.,4.8,0.,4.8
1979-07-24 06:12:22.600 ,1,0,3.,4.8,0.,4.8,0.,4.8,0.,4.8
1979-07-24 06:12:27.400 ,1,0,0.,4.8,0.,4.8,0.,4.8,0.,4.8
1979-07-24 06:12:32.200 ,1,0,1.,4.8,0.,4.8,1.,4.8,0.,4.8
1979-07-24 06:12:37.000 ,1,0,0.,4.8,0.,4.8,0.,4.8,0.,4.8
1979-07-24 06:12:41.800 ,1,0,1.,4.8,0.,4.8,0.,4.8,0.,4.8
1979-07-24 06:12:46.600 ,2,0,2.,4.8,0.,4.8,0.,4.8,0.,4.8
1979-07-24 06:12:51.400 ,2,0,0.,4.8,0.,4.8,0.,4.8,0.,4.8
1979-07-24 06:12:56.200 ,2,0,7.,4.8,0.,4.8,0.,4.8,0.,4.8
1979-07-24 06:13:01.000 ,2,0,1.,4.8,0.,4.8,0.,4.8,0.,4.8
1979-07-24 06:13:05.800 ,2,0,0.,4.8,0.,4.8,0.,4.8,0.,4.8
1979-07-24 06:13:10.600 ,2,0,3.,4.8,0.,4.8,0.,4.8,0.,4.8
1979-07-24 06:13:15.400 ,2,0,0.,4.8,0.,4.8,0.,4.8,0.,4.8
1979-07-24 06:13:20.200 ,2,0,0.,4.8,0.,4.8,0.,4.8,0.,4.8
1979-07-24 06:13:25.000 ,2,0,4.,4.8,0.,4.8,0.,4.8,0.,4.8
1979-07-24 06:13:29.800 ,2,0,4.,4.8,0.,4.8,0.,4.8,0.,4.8
1979-07-24 06:13:34.600 ,3,0,3.,4.8,0.,4.8,0.,4.8,0.,4.8
1979-07-24 06:13:39.400 ,3,0,7.,4.8,0.,4.8,0.,4.8,0.,4.8
1979-07-24 06:13:44.200 ,3,0,0.,4.8,0.,4.8,0.,4.8,0.,4.8
1979-07-24 06:13:49.000 ,3,0,4.,4.8,0.,4.8,1.,4.8,0.,4.8
1979-07-24 06:13:53.800 ,3,0,2.,4.8,0.,4.8,1.,4.8,0.,4.8
1979-07-24 06:13:58.600 ,3,0,0.,4.8,1.,4.8,1.,4.8,0.,4.8
1979-07-24 06:14:03.400 ,3,0,2.,4.8,0.,4.8,1.,4.8,0.,4.8
1979-07-24 06:14:08.200 ,3,0,4.,4.8,0.,4.8,1.,4.8,0.,4.8
1979-07-24 06:14:13.000 ,3,0,0.,4.8,0.,4.8,0.,4.8,0.,4.8
1979-07-24 06:14:17.800 ,3,0,1.,4.8,0.,4.8,0.,4.8,0.,4.8
1979-07-24 06:14:22.600 ,4,0,3.,4.8,0.,4.8,1.,4.8,0.,4.8
1979-07-24 06:14:27.400 ,4,0,8.,4.8,0.,4.8,0.,4.8,0.,4.8
1979-07-24 06:14:32.200 ,4,0,7.,4.8,0.,4.8,0.,4.8,0.,4.8
1979-07-24 06:14:37.000 ,4,0,1.,4.8,0.,4.8,0.,4.8,0.,4.8
1979-07-24 06:14:41.800 ,4,0,1.,4.8,0.,4.8,0.,4.8,0.,4.8
1979-07-24 06:14:46.600 ,4,0,0.,4.8,0.,4.8,0.,4.8,0.,4.8
1979-07-24 06:14:51.400 ,4,0,3.,4.8,0.,4.8,0.,4.8,0.,4.8
1979-07-24 06:14:56.200 ,4,0,1.,4.8,0.,4.8,0.,4.8,0.,4.8
1979-07-24 06:15:01.000 ,4,0,1.,4.8,0.,4.8,0.,4.8,0.,4.8
1979-07-24 06:15:05.800 ,4,0,4.,4.8,0.,4.8,0.,4.8,0.,4.8
1979-07-24 06:15:10.600 ,5,0,2.,4.8,0.,4.8,0.,4.8,1.,4.8
1979-07-24 06:15:15.400 ,5,0,6.,4.8,0.,4.8,0.,4.8,0.,4.8
1979-07-24 06:15:20.200 ,5,0,1.,4.8,0.,4.8,0.,4.8,0.,4.8
1979-07-24 06:15:25.000 ,5,0,2.,4.8,0.,4.8,0.,4.8,0.,4.8
1979-07-24 06:15:29.800 ,5,0,1.,4.8,0.,4.8,0.,4.8,0.,4.8
1979-07-24 06:15:34.600 ,5,0,2.,4.8,0.,4.8,0.,4.8,0.,4.8
1979-07-24 06:15:39.400 ,5,0,2.,4.8,0.,4.8,0.,4.8,0.,4.8
1979-07-24 06:15:44.200 ,5,0,2.,4.8,0.,4.8,0.,4.8,0.,4.8
1979-07-24 06:15:49.000 ,5,0,1.,4.8,1.,4.8,0.,4.8,0.,4.8
1979-07-24 06:15:53.800 ,5,0,2.,4.8,0.,4.8,0.,4.8,0.,4.8
1979-07-24 06:15:58.600 ,6,0,3.,4.8,0.,4.8,0.,4.8,0.,4.8
1979-07-24 06:16:03.400 ,6,0,3.,4.8,0.,4.8,0.,4.8,0.,4.8
1979-07-24 06:16:08.200 ,6,0,4.,4.8,0.,4.8,0.,4.8,0.,4.8
1979-07-24 06:16:13.000 ,6,0,1.,4.8,0.,4.8,0.,4.8,0.,4.8
1979-07-24 06:16:17.800 ,6,0,1.,4.8,0.,4.8,0.,4.8,0.,4.8
1979-07-24 06:16:22.600 ,6,0,2.,4.8,1.,4.8,0.,4.8,0.,4.8
1979-07-24 06:16:27.400 ,6,0,4.,4.8,0.,4.8,0.,4.8,1.,4.8
1979-07-24 06:16:32.200 ,6,0,1.,4.8,0.,4.8,0.,4.8,0.,4.8
1979-07-24 06:16:37.000 ,6,0,0.,4.8,0.,4.8,0.,4.8,0.,4.8
1979-07-24 06:16:41.800 ,6,0,3.,4.8,0.,4.8,0.,4.8,0.,4.8
1979-07-24 06:16:46.600 ,7,0,4.,4.8,0.,4.8,0.,4.8,0.,4.8
1979-07-24 06:16:51.400 ,7,0,0.,4.8,0.,4.8,0.,4.8,2.,4.8
1979-07-24 06:16:56.200 ,7,0,1.,4.8,0.,4.8,0.,4.8,0.,4.8
1979-07-24 06:17:01.000 ,7,0,3.,4.8,0.,4.8,0.,4.8,0.,4.8
1979-07-24 06:17:05.800 ,7,0,1.,4.8,0.,4.8,0.,4.8,0.,4.8
1979-07-24 06:17:10.600 ,7,0,1.,4.8,0.,4.8,0.,4.8,0.,4.8
1979-07-24 06:17:15.400 ,7,0,0.,4.8,0.,4.8,0.,4.8,0.,4.8
1979-07-24 06:17:20.200 ,7,0,2.,4.8,0.,4.8,1.,4.8,0.,4.8
1979-07-24 06:17:25.000 ,7,0,1.,4.8,0.,4.8,0.,4.8,0.,4.8
1979-07-24 06:17:29.800 ,7,0,0.,4.8,0.,4.8,0.,4.8,0.,4.8
1979-07-24 06:17:34.600 ,7,0,0.,4.8,0.,4.8,0.,4.8,0.,4.8
1979-07-24 06:17:39.400 ,7,0,1.,4.8,0.,4.8,0.,4.8,0.,4.8
1979-07-24 06:17:44.200 ,7,0,1.,4.8,0.,4.8,0.,4.8,0.,4.8
1979-07-24 06:17:49.000 ,7,0,0.,4.8,0.,4.8,0.,4.8,0.,4.8
1979-07-24 06:17:53.800 ,7,0,0.,4.8,0.,4.8,0.,4.8,0.,4.8
1979-07-24 06:17:58.600 ,7,0,0.,4.8,0.,4.8,0.,4.8,0.,4.8
1979-07-24 06:18:03.400 ,7,0,1.,4.8,0.,4.8,0.,4.8,0.,4.8
1979-07-24 06:18:08.200 ,7,0,1.,4.8,0.,4.8,0.,4.8,0.,4.8
1979-07-24 06:18:13.000 ,7,0,0.,4.8,0.,4.8,0.,4.8,0.,4.8
1979-07-24 06:18:17.800 ,7,0,1.,4.8,1.,4.8,0.,4.8,0.,4.8
1979-07-24 06:18:22.600 ,6,0,4.,4.8,0.,4.8,0.,4.8,0.,4.8
1979-07-24 06:18:27.400 ,6,0,3.,4.8,0.,4.8,0.,4.8,0.,4.8
1979-07-24 06:18:32.200 ,6,0,0.,4.8,1.,4.8,0.,4.8,0.,4.8
1979-07-24 06:18:37.000 ,6,0,3.,4.8,0.,4.8,0.,4.8,0.,4.8
1979-07-24 06:18:41.800 ,6,0,4.,4.8,0.,4.8,0.,4.8,0.,4.8
1979-07-24 06:18:46.600 ,6,0,2.,4.8,0.,4.8,0.,4.8,0.,4.8
1979-07-24 06:18:51.400 ,6,0,4.,4.8,0.,4.8,0.,4.8,0.,4.8
1979-07-24 06:18:56.200 ,6,0,0.,4.8,0.,4.8,0.,4.8,0.,4.8
1979-07-24 06:19:01.000 ,6,0,3.,4.8,0.,4.8,1.,4.8,0.,4.8
1979-07-24 06:19:05.800 ,6,0,5.,4.8,0.,4.8,0.,4.8,0.,4.8
1979-07-24 06:19:10.600 ,5,0,5.,4.8,0.,4.8,1.,4.8,0.,4.8
1979-07-24 06:19:15.400 ,5,0,3.,4.8,0.,4.8,0.,4.8,0.,4.8
1979-07-24 06:19:20.200 ,5,0,2.,4.8,0.,4.8,0.,4.8,0.,4.8
1979-07-24 06:19:25.000 ,5,0,3.,4.8,0.,4.8,0.,4.8,0.,4.8
1979-07-24 06:19:29.800 ,5,0,0.,4.8,0.,4.8,1.,4.8,0.,4.8
1979-07-24 06:19:34.600 ,5,0,2.,4.8,0.,4.8,0.,4.8,0.,4.8
1979-07-24 06:19:39.400 ,5,0,3.,4.8,0.,4.8,0.,4.8,0.,4.8
1979-07-24 06:19:44.200 ,5,0,3.,4.8,1.,4.8,0.,4.8,0.,4.8
1979-07-24 06:19:49.000 ,5,0,1.,4.8,0.,4.8,0.,4.8,0.,4.8
1979-07-24 06:19:53.800 ,5,0,3.,4.8,0.,4.8,0.,4.8,0.,4.8
1979-07-24 06:19:58.600 ,4,0,0.,4.8,0.,4.8,0.,4.8,0.,4.8
1979-07-24 06:20:03.400 ,4,0,1.,4.8,0.,4.8,0.,4.8,0.,4.8
1979-07-24 06:20:08.200 ,4,0,0.,4.8,0.,4.8,0.,4.8,0.,4.8
1979-07-24 06:20:13.000 ,4,0,3.,4.8,0.,4.8,0.,4.8,0.,4.8
1979-07-24 06:20:17.800 ,4,0,3.,4.8,0.,4.8,0.,4.8,0.,4.8
1979-07-24 06:20:22.600 ,4,0,0.,4.8,0.,4.8,0.,4.8,0.,4.8
1979-07-24 06:20:27.400 ,4,0,2.,4.8,0.,4.8,1.,4.8,0.,4.8
1979-07-24 06:20:32.200 ,4,0,3.,4.8,0.,4.8,0.,4.8,0.,4.8
1979-07-24 06:20:37.000 ,4,0,1.,4.8,0.,4.8,0.,4.8,0.,4.8
1979-07-24 06:20:41.800 ,4,0,1.,4.8,0.,4.8,0.,4.8,0.,4.8
1979-07-24 06:20:46.600 ,3,0,1.,4.8,0.,4.8,0.,4.8,0.,4.8
1979-07-24 06:20:51.400 ,3,0,1.,4.8,0.,4.8,1.,4.8,0.,4.8
1979-07-24 06:20:56.200 ,3,0,1.,4.8,0.,4.8,0.,4.8,0.,4.8
1979-07-24 06:21:01.000 ,3,0,1.,4.8,0.,4.8,0.,4.8,0.,4.8
1979-07-24 06:21:05.800 ,3,0,4.,4.8,0.,4.8,0.,4.8,0.,4.8
1979-07-24 06:21:10.600 ,3,0,1.,4.8,0.,4.8,0.,4.8,0.,4.8
1979-07-24 06:21:15.400 ,3,0,3.,4.8,0.,4.8,0.,4.8,0.,4.8
1979-07-24 06:21:20.200 ,3,0,4.,4.8,0.,4.8,0.,4.8,0.,4.8
1979-07-24 06:21:25.000 ,3,0,2.,4.8,0.,4.8,0.,4.8,0.,4.8
1979-07-24 06:21:29.800 ,3,0,3.,4.8,0.,4.8,0.,4.8,0.,4.8
1979-07-24 06:21:34.600 ,2,0,1.,4.8,0.,4.8,0.,4.8,0.,4.8
1979-07-24 06:21:39.400 ,2,0,2.,4.8,0.,4.8,0.,4.8,0.,4.8
1979-07-24 06:21:44.200 ,2,0,4.,4.8,0.,4.8,0.,4.8,0.,4.8
1979-07-24 06:21:49.000 ,2,0,4.,4.8,0.,4.8,0.,4.8,0.,4.8
1979-07-24 06:21:53.800 ,2,0,3.,4.8,0.,4.8,0.,4.8,0.,4.8
1979-07-24 06:21:58.600 ,2,0,3.,4.8,0.,4.8,0.,4.8,0.,4.8
1979-07-24 06:22:03.400 ,2,0,3.,4.8,0.,4.8,1.,4.8,0.,4.8
1979-07-24 06:22:08.200 ,2,0,1.,4.8,0.,4.8,0.,4.8,0.,4.8
1979-07-24 06:22:13.000 ,2,0,0.,4.8,0.,4.8,0.,4.8,0.,4.8
1979-07-24 06:22:17.800 ,2,0,2.,4.8,0.,4.8,0.,4.8,0.,4.8
1979-07-24 06:22:22.600 ,1,0,1.,4.8,0.,4.8,1.,4.8,0.,4.8
1979-07-24 06:22:27.400 ,1,0,5.,4.8,0.,4.8,0.,4.8,0.,4.8
1979-07-24 06:22:32.200 ,1,0,1.,4.8,0.,4.8,0.,4.8,1.,4.8
1979-07-24 06:22:37.000 ,1,0,2.,4.8,0.,4.8,0.,4.8,0.,4.8
1979-07-24 06:22:41.800 ,1,0,2.,4.8,0.,4.8,0.,4.8,0.,4.8
1979-07-24 06:22:46.600 ,1,0,2.,4.8,0.,4.8,0.,4.8,0.,4.8
1979-07-24 06:22:51.400 ,1,0,2.,4.8,0.,4.8,0.,4.8,0.,4.8
1979-07-24 06:22:56.200 ,1,0,4.,4.8,0.,4.8,0.,4.8,0.,4.8
1979-07-24 06:23:01.000 ,1,0,3.,4.8,0.,4.8,0.,4.8,0.,4.8
1979-07-24 06:23:05.800 ,1,0,2.,4.8,0.,4.8,0.,4.8,0.,4.8
1979-07-24 06:23:10.600 ,0,0,4.,4.8,0.,4.8,1.,4.8,0.,4.8
1979-07-24 06:23:15.400 ,0,0,0.,4.8,0.,4.8,0.,4.8,0.,4.8
1979-07-24 06:23:20.200 ,0,0,3.,4.8,0.,4.8,0.,4.8,0.,4.8
1979-07-24 06:23:25.000 ,0,0,3.,4.8,0.,4.8,1.,4.8,0.,4.8
1979-07-24 06:23:29.800 ,0,0,2.,4.8,0.,4.8,0.,4.8,0.,4.8
1979-07-24 06:23:34.600 ,0,0,3.,4.8,0.,4.8,0.,4.8,0.,4.8
1979-07-24 06:23:39.400 ,0,0,0.,4.8,0.,4.8,0.,4.8,0.,4.8
1979-07-24 06:23:44.200 ,0,0,5.,4.8,0.,4.8,1.,4.8,0.,4.8
1979-07-24 06:23:49.000 ,0,0,2.,4.8,0.,4.8,1.,4.8,0.,4.8
1979-07-24 06:23:53.800 ,0,0,1.,4.8,0.,4.8,0.,4.8,0.,4.8
1979-07-24 06:23:58.600 ,0,0,0.,4.8,0.,4.8,0.,4.8,1.,4.8
1979-07-24 06:24:03.400 ,0,0,4.,4.8,0.,4.8,0.,4.8,1.,4.8
1979-07-24 06:24:08.200 ,0,0,2.,4.8,0.,4.8,0.,4.8,0.,4.8
1979-07-24 06:24:13.000 ,0,0,2.,4.8,0.,4.8,0.,4.8,0.,4.8
1979-07-24 06:24:17.800 ,0,0,4.,4.8,0.,4.8,0.,4.8,0.,4.8
1979-07-24 06:24:22.600 ,0,0,3.,4.8,0.,4.8,2.,4.8,0.,4.8
1979-07-24 06:24:27.400 ,0,0,5.,4.8,0.,4.8,0.,4.8,0.,4.8
1979-07-24 06:24:32.200 ,0,0,3.,4.8,0.,4.8,0.,4.8,0.,4.8
1979-07-24 06:24:37.000 ,0,0,2.,4.8,0.,4.8,0.,4.8,0.,4.8
1979-07-24 06:24:41.800 ,0,0,2.,4.8,1.,4.8,0.,4.8,0.,4.8
1979-07-24 06:24:46.600 ,1,0,3.,4.8,0.,4.8,0.,4.8,0.,4.8
1979-07-24 06:24:51.400 ,1,0,0.,4.8,0.,4.8,0.,4.8,0.,4.8
1979-07-24 06:24:56.200 ,1,0,2.,4.8,0.,4.8,1.,4.8,0.,4.8
1979-07-24 06:25:01.000 ,1,0,1.,4.8,0.,4.8,0.,4.8,0.,4.8
1979-07-24 06:25:05.800 ,1,0,2.,4.8,0.,4.8,0.,4.8,0.,4.8
1979-07-24 06:25:10.600 ,1,0,1.,4.8,0.,4.8,0.,4.8,0.,4.8
1979-07-24 06:25:15.400 ,1,0,3.,4.8,0.,4.8,0.,4.8,0.,4.8
1979-07-24 06:25:20.200 ,1,0,0.,4.8,0.,4.8,0.,4.8,0.,4.8
1979-07-24 06:25:25.000 ,1,0,3.,4.8,0.,4.8,0.,4.8,0.,4.8
1979-07-24 06:25:29.800 ,1,0,1.,4.8,0.,4.8,0.,4.8,0.,4.8
1979-07-24 06:25:34.600 ,2,0,5.,4.8,0.,4.8,0.,4.8,0.,4.8
1979-07-24 06:25:39.400 ,2,0,1.,4.8,0.,4.8,0.,4.8,0.,4.8
1979-07-24 06:25:44.200 ,2,0,1.,4.8,0.,4.8,0.,4.8,0.,4.8
1979-07-24 06:25:49.000 ,2,0,0.,4.8,0.,4.8,0.,4.8,0.,4.8
1979-07-24 06:25:53.800 ,2,0,3.,4.8,0.,4.8,0.,4.8,0.,4.8
1979-07-24 06:25:58.600 ,2,0,5.,4.8,0.,4.8,0.,4.8,0.,4.8
1979-07-24 06:26:03.400 ,2,0,0.,4.8,0.,4.8,1.,4.8,0.,4.8
1979-07-24 06:26:08.200 ,2,0,0.,4.8,0.,4.8,0.,4.8,0.,4.8
1979-07-24 06:26:13.000 ,2,0,3.,4.8,0.,4.8,0.,4.8,0.,4.8
1979-07-24 06:26:17.800 ,2,0,6.,4.8,0.,4.8,0.,4.8,0.,4.8
1979-07-24 06:26:22.600 ,3,0,0.,4.8,0.,4.8,0.,4.8,0.,4.8
1979-07-24 06:26:27.400 ,3,0,2.,4.8,0.,4.8,0.,4.8,0.,4.8
1979-07-24 06:26:32.200 ,3,0,3.,4.8,0.,4.8,1.,4.8,0.,4.8
1979-07-24 06:26:37.000 ,3,0,0.,4.8,0.,4.8,0.,4.8,0.,4.8
1979-07-24 06:26:41.800 ,3,0,3.,4.8,0.,4.8,0.,4.8,0.,4.8
1979-07-24 06:26:46.600 ,3,0,5.,4.8,0.,4.8,0.,4.8,1.,4.8
1979-07-24 06:26:51.400 ,3,0,5.,4.8,0.,4.8,0.,4.8,0.,4.8
1979-07-24 06:26:56.200 ,3,0,3.,4.8,0.,4.8,0.,4.8,0.,4.8
1979-07-24 06:27:01.000 ,3,0,1.,4.8,0.,4.8,0.,4.8,0.,4.8
1979-07-24 06:27:05.800 ,3,0,2.,4.8,0.,4.8,0.,4.8,0.,4.8
1979-07-24 06:27:10.600 ,4,0,4.,4.8,0.,4.8,0.,4.8,0.,4.8
1979-07-24 06:27:15.400 ,4,0,0.,4.8,0.,4.8,0.,4.8,0.,4.8
1979-07-24 06:27:20.200 ,4,0,3.,4.8,0.,4.8,0.,4.8,0.,4.8
1979-07-24 06:27:25.000 ,4,0,2.,4.8,0.,4.8,1.,4.8,0.,4.8
1979-07-24 06:27:29.800 ,4,0,3.,4.8,0.,4.8,0.,4.8,0.,4.8
1979-07-24 06:27:34.600 ,4,0,2.,4.8,0.,4.8,0.,4.8,0.,4.8
1979-07-24 06:27:39.400 ,4,0,1.,4.8,0.,4.8,0.,4.8,0.,4.8
1979-07-24 06:27:44.200 ,4,0,2.,4.8,0.,4.8,0.,4.8,0.,4.8
1979-07-24 06:27:49.000 ,4,0,3.,4.8,0.,4.8,0.,4.8,0.,4.8
1979-07-24 06:27:53.800 ,4,0,3.,4.8,0.,4.8,0.,4.8,0.,4.8
1979-07-24 06:27:58.600 ,5,0,3.,4.8,0.,4.8,1.,4.8,0.,4.8
1979-07-24 06:28:03.400 ,5,0,3.,4.8,0.,4.8,0.,4.8,0.,4.8
1979-07-24 06:28:08.200 ,5,0,3.,4.8,0.,4.8,0.,4.8,0.,4.8
1979-07-24 06:28:13.000 ,5,0,5.,4.8,0.,4.8,0.,4.8,0.,4.8
1979-07-24 06:28:17.800 ,5,0,1.,4.8,0.,4.8,0.,4.8,0.,4.8
1979-07-24 06:28:22.600 ,5,0,2.,4.8,0.,4.8,0.,4.8,1.,4.8
1979-07-24 06:28:27.400 ,5,0,1.,4.8,1.,4.8,1.,4.8,0.,4.8
1979-07-24 06:28:32.200 ,5,0,2.,4.8,0.,4.8,0.,4.8,0.,4.8
1979-07-24 06:28:37.000 ,5,0,3.,4.8,0.,4.8,0.,4.8,0.,4.8
1979-07-24 06:28:41.800 ,5,0,3.,4.8,0.,4.8,0.,4.8,0.,4.8
1979-07-24 06:28:46.600 ,6,0,4.,4.8,0.,4.8,0.,4.8,0.,4.8
1979-07-24 06:28:51.400 ,6,0,4.,4.8,0.,4.8,1.,4.8,0.,4.8
1979-07-24 06:28:56.200 ,6,0,0.,4.8,0.,4.8,0.,4.8,0.,4.8
1979-07-24 06:29:01.000 ,6,0,0.,4.8,0.,4.8,0.,4.8,0.,4.8
1979-07-24 06:29:05.800 ,6,0,3.,4.8,0.,4.8,0.,4.8,0.,4.8
1979-07-24 06:29:10.600 ,6,0,1.,4.8,0.,4.8,0.,4.8,0.,4.8
1979-07-24 06:29:15.400 ,6,0,4.,4.8,0.,4.8,0.,4.8,0.,4.8
1979-07-24 06:29:20.200 ,6,0,2.,4.8,1.,4.8,0.,4.8,0.,4.8
1979-07-24 06:29:25.000 ,6,0,1.,4.8,0.,4.8,1.,4.8,0.,4.8
1979-07-24 06:29:29.800 ,6,0,4.,4.8,1.,4.8,0.,4.8,1.,4.8
1979-07-24 06:29:34.600 ,7,0,2.,4.8,0.,4.8,0.,4.8,0.,4.8
1979-07-24 06:29:39.400 ,7,0,7.,4.8,0.,4.8,0.,4.8,0.,4.8
1979-07-24 06:29:44.200 ,7,0,2.,4.8,0.,4.8,0.,4.8,0.,4.8
1979-07-24 06:29:49.000 ,7,0,2.,4.8,0.,4.8,0.,4.8,0.,4.8
1979-07-24 06:29:53.800 ,7,0,0.,4.8,0.,4.8,0.,4.8,0.,4.8
1979-07-24 06:29:58.600 ,7,0,0.,4.8,0.,4.8,0.,4.8,0.,4.8
1979-07-24 06:30:03.400 ,7,0,1.,4.8,0.,4.8,0.,4.8,0.,4.8
1979-07-24 06:30:08.200 ,7,0,3.,4.8,0.,4.8,0.,4.8,0.,4.8
1979-07-24 06:30:13.000 ,7,0,3.,4.8,0.,4.8,0.,4.8,0.,4.8
1979-07-24 06:30:17.800 ,7,0,1.,4.8,0.,4.8,0.,4.8,0.,4.8
1979-07-24 06:30:22.600 ,7,0,3.,4.8,0.,4.8,0.,4.8,0.,4.8
1979-07-24 06:30:27.400 ,7,0,1.,4.8,0.,4.8,1.,4.8,0.,4.8
1979-07-24 06:30:32.200 ,7,0,1.,4.8,0.,4.8,0.,4.8,0.,4.8
1979-07-24 06:30:37.000 ,7,0,0.,4.8,0.,4.8,1.,4.8,0.,4.8
1979-07-24 06:30:41.800 ,7,0,2.,4.8,0.,4.8,0.,4.8,0.,4.8
1979-07-24 06:30:46.600 ,7,0,0.,4.8,0.,4.8,0.,4.8,0.,4.8
1979-07-24 06:30:51.400 ,7,0,0.,4.8,0.,4.8,1.,4.8,0.,4.8
1979-07-24 06:30:56.200 ,7,0,1.,4.8,0.,4.8,0.,4.8,0.,4.8
1979-07-24 06:31:01.000 ,7,0,1.,4.8,0.,4.8,0.,4.8,0.,4.8
1979-07-24 06:31:05.800 ,7,0,3.,4.8,0.,4.8,0.,4.8,0.,4.8
1979-07-24 06:31:10.600 ,6,0,2.,4.8,0.,4.8,0.,4.8,0.,4.8
1979-07-24 06:31:15.400 ,6,0,0.,4.8,0.,4.8,1.,4.8,0.,4.8
1979-07-24 06:31:20.200 ,6,0,1.,4.8,0.,4.8,0.,4.8,0.,4.8
1979-07-24 06:31:25.000 ,6,0,2.,4.8,0.,4.8,0.,4.8,0.,4.8
1979-07-24 06:31:29.800 ,6,0,2.,4.8,0.,4.8,0.,4.8,0.,4.8
1979-07-24 06:31:34.600 ,6,0,1.,4.8,0.,4.8,2.,4.8,0.,4.8
1979-07-24 06:31:39.400 ,6,0,1.,4.8,0.,4.8,0.,4.8,0.,4.8
1979-07-24 06:31:44.200 ,6,0,3.,4.8,0.,4.8,0.,4.8,0.,4.8
1979-07-24 06:31:49.000 ,6,0,1.,4.8,0.,4.8,0.,4.8,0.,4.8
1979-07-24 06:31:53.800 ,6,0,1.,4.8,0.,4.8,1.,4.8,0.,4.8
1979-07-24 06:31:58.600 ,5,0,2.,4.8,0.,4.8,0.,4.8,0.,4.8
1979-07-24 06:32:03.400 ,5,0,0.,4.8,0.,4.8,0.,4.8,0.,4.8
1979-07-24 06:32:08.200 ,5,0,3.,4.8,0.,4.8,0.,4.8,0.,4.8
1979-07-24 06:32:13.000 ,5,0,3.,4.8,0.,4.8,1.,4.8,0.,4.8
1979-07-24 06:32:17.800 ,5,0,1.,4.8,0.,4.8,0.,4.8,0.,4.8
1979-07-24 06:32:22.600 ,5,0,5.,4.8,0.,4.8,0.,4.8,0.,4.8
1979-07-24 06:32:27.400 ,5,0,0.,4.8,0.,4.8,1.,4.8,0.,4.8
1979-07-24 06:32:32.200 ,5,0,0.,4.8,0.,4.8,0.,4.8,0.,4.8
1979-07-24 06:32:37.000 ,5,0,4.,4.8,0.,4.8,0.,4.8,0.,4.8
1979-07-24 06:32:41.800 ,5,0,0.,4.8,0.,4.8,0.,4.8,0.,4.8
1979-07-24 06:32:46.600 ,4,0,4.,4.8,0.,4.8,0.,4.8,0.,4.8
1979-07-24 06:32:51.400 ,4,0,2.,4.8,0.,4.8,0.,4.8,0.,4.8
1979-07-24 06:32:56.200 ,4,0,2.,4.8,0.,4.8,0.,4.8,0.,4.8
1979-07-24 06:33:01.000 ,4,0,4.,4.8,0.,4.8,0.,4.8,0.,4.8
1979-07-24 06:33:05.800 ,4,0,1.,4.8,0.,4.8,1.,4.8,0.,4.8
1979-07-24 06:33:10.600 ,4,0,2.,4.8,0.,4.8,0.,4.8,0.,4.8
1979-07-24 06:33:15.400 ,4,0,2.,4.8,0.,4.8,0.,4.8,0.,4.8